Hourly Weather Roundup
Issued by NWS Central Illinois

Home | Current Version | Previous Version | Text Only | Print | Product List | Glossary On
Versions: 1 2 3 4 5 6 7 8 9 10 11 12 13 14 15 16 17 18 19 20 21 22 23 24 25 26 27 28 29 30 31 32 33 34 35 36 37 38 39 40 41 42 43 44 45 46 47 48 49 50
000
NZUS43 KILX 201810
HWRILX

AREA WEATHER ROUNDUP
NATIONAL WEATHER SERVICE, LINCOLN IL
100 PM CDT SAT SEP 20 2014


CITY           SKY/WX    TMP DP  RH WIND       PRES   REMARKS
BLOOMINGTON    PTSUNNY   80  69  69 SW14G23   29.90F HX  83
CHAMPAIGN      PTSUNNY   82  67  60 S20G29    29.94F HX  84
6HR MIN TEMP:  58; 6HR MAX TEMP:  82;

DECATUR        MOSUNNY   83  68  60 SW18G26   29.94F HX  86
6HR MIN TEMP:  60; 6HR MAX TEMP:  83;

FLORA          PTSUNNY   81  66  60 SW13G20   30.01F HX  83
6HR MIN TEMP:  53; 6HR MAX TEMP:  82;

GALESBURG      CLOUDY    78  69  72 SW10G18   29.91S HX  81
JACKSONVILLE   CLOUDY    83  70  63 SW12G20   29.93F HX  87
6HR MIN TEMP:  64; 6HR MAX TEMP:  83; 6HR PCP:  0.01;

LACON          MOSUNNY   76  66  73 SW9       29.88R
6HR MIN TEMP:  63; 6HR MAX TEMP:  76;

LAWRENCEVILLE  PTSUNNY   82  68  62 W15       30.01F HX  85
6HR MIN TEMP:  53; 6HR MAX TEMP:  82;

LITCHFIELD     MOSUNNY   82  69  64 SW14G20   29.97F HX  86
$$


CITY           SKY/WX    TMP DP  RH WIND       PRES   REMARKS
LINCOLN        PTSUNNY   82  68  60 S13G20    29.87F HX  85
6HR MIN TEMP:  59; 6HR MAX TEMP:  84;

MACOMB         CLOUDY    78  67  69 W16G23    29.93F HX  81
MATTOON        PTSUNNY   78  68  71 S10G21    29.97F HX  80
6HR MIN TEMP:  58; 6HR MAX TEMP:  78;

MT CARMEL AP   PTSUNNY   86  66  51 W14G24    30.01F HX  88
OLNEY-NOBLE AP MOSUNNY   82  68  61 SW5       30.01F HX  85
PARIS          PTSUNNY   81  67  63 S14G20    29.97F HX  83
6HR MIN TEMP:  53; 6HR MAX TEMP:  82;

PEORIA         PTSUNNY   80  67  64 W14       29.90R HX  82
6HR MIN TEMP:  61; 6HR MAX TEMP:  80;

PONTIAC        PTSUNNY   82  68  61 SW16G22   29.87F HX  85
RANTOUL        CLOUDY    83  64  51 SW20      29.92F HX  85
6HR MIN TEMP:  58; 6HR MAX TEMP:  83;

ROBINSON       PTSUNNY   82  69  65 SW16      30.01F HX  85
6HR MIN TEMP:  52; 6HR MAX TEMP:  82;

SPRINGFIELD    PTSUNNY   82  69  64 SW14G21   29.92F HX  85
6HR MIN TEMP:  64; 6HR MAX TEMP:  82;

TAYLORVILLE    MOSUNNY   82  68  61 SW15G22   29.95F HX  85
$$

...REGIONAL REPORTS...


CITY           SKY/WX    TMP DP  RH WIND       PRES   REMARKS
CHICAGO O`HARE PTSUNNY   76  64  66 SW12      29.85R
KANKAKEE       PTSUNNY   80  68  66 SW20G26   29.89S HX  83
MOLINE         CLOUDY    78  68  71 W17G23    29.88S HX  80
MOUNT VERNON   PTSUNNY   82  70  65 SW14G21   30.03F HX  86
PITTSFIELD     CLOUDY    81  69  67 SW12G20   29.95R HX  84
QUINCY         PTSUNNY   78  69  73 SW14      29.93F HX  80
ROCKFORD       CLOUDY    78  64  61 SW10G18   29.86F HX  80
$$


CITY           SKY/WX    TMP DP  RH WIND       PRES   REMARKS
BURLINGTON     CLOUDY    80  69  69 W12       29.90F HX  83
CEDAR RAPIDS   TSTM      71  68  90 W8        29.89R
DES MOINES     PTSUNNY   77  66  68 S8        29.85F
KIRKSVILLE     CLOUDY    76  69  79 SW9       29.96R
OTTUMWA        CLOUDY    76  67  73 W9        29.91R
ST LOUIS       PTSUNNY   85  70  60 SW16      29.98F HX  89
$$


CITY           SKY/WX    TMP DP  RH WIND       PRES   REMARKS
TERRE HAUTE    PTSUNNY   79  66  64 SW14      29.99F HX  81
EVANSVILLE     MOSUNNY   84  65  52 SW15      30.04F HX  86
INDIANAPOLIS   NOT AVBL
LAFAYETTE      PTSUNNY   78  64  61 S14G23    29.94F HX  80
MADISON        LGT RAIN  74  63  68 VRB6      29.81R
MILWAUKEE      PTSUNNY   77  61  57 SW18G30   29.78F
$$





USA.gov is the U.S. government's official web portal to all federal, state and local government web resources and services.